North Conway, NH

1:22 PM EST on November 13, 2019 (GMT -0500)
North Conway

Weather History for KCWN - October, 2019

Change the Weather History Date:

Sunday, October 20, 2019

  Actual Average (WUND) Record (WUND)
Temperature  
Mean Temperature 44 °F -  
Max Temperature 51 °F - - (-1)
Min Temperature 36 °F - - (-1)
Degree Days  
Heating Degree Days 20    
Moisture  
Dew Point 8 °F    
Average Humidity 22    
Maximum Humidity 57    
Minimum Humidity 14    
Precipitation  
Precipitation 0.00 in - - ()
Sea Level Pressure  
Sea Level Pressure 29.21 in    
Wind  
Wind Speed 12 mph (North)    
Max Wind Speed 23 mph    
Max Gust Speed 51 mph    
Visibility 10 miles    
Events Rain    
Averages and records for this station are not official NWS values.
T = Trace of Precipitation, MM = Missing Value Source: NWS Daily Summary

Daily Weather History Graph

Daily Weather History Graph

Search for Another Location

Airport or City:

Astronomy

Oct. 20, 2019 Rise Set
Actual Time 7:05 AM EDT 5:53 PM EDT
Civil Twilight 6:35 AM EDT 6:22 PM EDT
Nautical Twilight 6:02 AM EDT 6:55 PM EDT
Astronomical Twilight 5:28 AM EDT 7:29 PM EDT
Moon 10:50 PM EDT (10/20) 1:39 PM EDT (10/20)
Length of Visible Light 11h 46m
Length of Day
10h 47m
Waning Gibbous, 59% of the Moon is Illuminated
Oct 20
Waning Gibbous
Oct 21
Last Quarter
Oct 27
New
Nov 4
First Quarter
Nov 12
Full

Hourly Weather History & Observations

Time (EDT) Temp. Windchill Dew Point Humidity Pressure Visibility Wind Dir Wind Speed Gust Speed Precip Events Conditions
12:58 AM 46.8 °F - 9.1 °F 22% 29.28 in 10.0 mi NW 3.5 mph - N/A   Mostly Cloudy
1:58 AM 45.1 °F 43.7 °F 8.2 °F 22% 29.25 in 10.0 mi WNW 3.5 mph - N/A   Partly Cloudy
2:59 AM 50.0 °F - 8.6 °F 19% 29.10 in 10.0 mi North 18.4 mph 34.5 mph N/A   Clear
3:00 AM 50.0 °F - 8.6 °F 19% 29.11 in 10.0 mi NW 19.6 mph 34.5 mph N/A   Clear
3:03 AM 50.0 °F - 8.6 °F 19% 29.11 in 10.0 mi East 12.7 mph 34.5 mph N/A   Clear
3:04 AM 50.0 °F - 8.6 °F 19% 29.10 in 10.0 mi NNE 11.5 mph 34.5 mph N/A   Clear
3:06 AM 50.0 °F - 8.6 °F 19% 29.09 in 10.0 mi NW 17.3 mph 34.5 mph N/A   Clear
3:12 AM 50.0 °F - 8.6 °F 19% 29.10 in 10.0 mi East 15.0 mph 34.5 mph N/A   Clear
3:14 AM 51.8 °F - 8.6 °F 18% 29.06 in 10.0 mi NE 19.6 mph 35.7 mph N/A   Clear
3:15 AM 51.8 °F - 8.6 °F 18% 29.08 in 10.0 mi North 17.3 mph 35.7 mph N/A   Clear
3:16 AM 51.8 °F - 8.6 °F 18% 29.09 in 10.0 mi West 13.8 mph 35.7 mph N/A   Clear
3:19 AM 51.8 °F - 8.6 °F 18% 29.09 in 10.0 mi North 15.0 mph 35.7 mph N/A   Clear
3:23 AM 50.0 °F - 8.6 °F 19% 29.08 in 10.0 mi WNW 12.7 mph 35.7 mph N/A   Clear
3:50 AM 50.0 °F - 8.6 °F 19% 29.07 in 10.0 mi ENE 13.8 mph 29.9 mph N/A   Clear
3:51 AM 50.0 °F - 8.6 °F 19% 29.06 in 10.0 mi NNW 17.3 mph 29.9 mph N/A   Clear
3:58 AM 50.5 °F - 9.1 °F 19% 29.08 in 10.0 mi NW 13.8 mph 32.2 mph N/A   Clear
4:03 AM 50.0 °F - 8.6 °F 19% 29.07 in 10.0 mi North 13.8 mph 32.2 mph N/A   Clear
4:05 AM 50.0 °F - 8.6 °F 19% 29.07 in 10.0 mi WSW 12.7 mph 32.2 mph N/A   Clear
4:06 AM 50.0 °F - 8.6 °F 19% 29.08 in 10.0 mi SSW 15.0 mph 34.5 mph N/A   Clear
4:07 AM 50.0 °F - 8.6 °F 19% 29.08 in 10.0 mi South 17.3 mph 34.5 mph N/A   Clear
4:08 AM 50.0 °F - 8.6 °F 19% 29.06 in 10.0 mi ESE 23.0 mph 34.5 mph N/A   Clear
4:09 AM 50.0 °F - 8.6 °F 19% 29.06 in 10.0 mi NE 19.6 mph 34.5 mph N/A   Clear
4:10 AM 50.0 °F - 8.6 °F 19% 29.06 in 10.0 mi North 17.3 mph 34.5 mph N/A   Clear
4:17 AM 51.8 °F - 8.6 °F 18% 29.07 in 10.0 mi NW 13.8 mph 50.6 mph N/A   Clear
4:26 AM 51.8 °F - 8.6 °F 18% 29.08 in 10.0 mi North 12.7 mph 50.6 mph N/A   Clear
4:27 AM 51.8 °F - 8.6 °F 18% 29.08 in 10.0 mi East 13.8 mph 50.6 mph N/A   Clear
4:28 AM 51.8 °F - 8.6 °F 18% 29.08 in 10.0 mi SE 13.8 mph 50.6 mph N/A   Clear
4:29 AM 51.8 °F - 8.6 °F 18% 29.10 in 10.0 mi East 16.1 mph 38.0 mph N/A   Clear
4:30 AM 51.8 °F - 8.6 °F 18% 29.08 in 10.0 mi NNE 15.0 mph 38.0 mph N/A   Clear
4:31 AM 51.8 °F - 8.6 °F 18% 29.10 in 10.0 mi NNW 17.3 mph 42.6 mph N/A   Clear
4:58 AM 50.5 °F - 9.0 °F 19% 29.10 in 10.0 mi NE 5.8 mph 40.3 mph N/A   Clear
5:58 AM 48.2 °F - 11.7 °F 23% 29.15 in 10.0 mi ESE 8.1 mph 18.4 mph N/A   Clear
6:33 AM 48.2 °F - 12.2 °F 24% 29.16 in 10.0 mi East 11.5 mph - N/A   Clear
7:49 AM 42.8 °F 35.8 °F 24.8 °F 49% 29.24 in 10.0 mi NNE 13.8 mph 23.0 mph N/A   Mostly Cloudy
7:59 AM 41.0 °F 33.1 °F 26.6 °F 57% 29.27 in 10.0 mi WNW 15.0 mph 20.7 mph N/A   Mostly Cloudy
8:01 AM 41.0 °F 35.2 °F 26.6 °F 57% 29.27 in 10.0 mi NNW 9.2 mph 20.7 mph N/A Rain Light Rain
8:23 AM 41.0 °F 36.4 °F 26.6 °F 57% 29.27 in 10.0 mi NNW 6.9 mph - N/A   Overcast
8:37 AM 41.0 °F 33.5 °F 24.8 °F 53% 29.26 in 10.0 mi NNW 13.8 mph 26.5 mph N/A   Mostly Cloudy
8:43 AM 41.0 °F 33.9 °F 23.0 °F 49% 29.26 in 10.0 mi NW 12.7 mph 33.4 mph N/A   Mostly Cloudy
8:58 AM 40.8 °F 33.3 °F 20.7 °F 45% 29.25 in 10.0 mi NW 13.8 mph 27.6 mph N/A   Mostly Cloudy
9:58 AM 38.3 °F 30.5 °F 12.7 °F 35% 29.30 in 10.0 mi NNW 12.7 mph 21.9 mph N/A   Scattered Clouds
10:58 AM 40.3 °F - 2.1 °F 20% 29.33 in 10.0 mi North - - N/A   Clear
11:58 AM 42.1 °F 36.1 °F 0.5 °F 18% 29.31 in 10.0 mi NE 10.4 mph - N/A   Clear
12:13 PM 41.0 °F 32.2 °F -2.2 °F 16% 29.33 in 10.0 mi NNW 18.4 mph 29.9 mph N/A   Clear
12:22 PM 41.0 °F 33.9 °F -2.2 °F 16% 29.32 in 10.0 mi NE 12.7 mph 29.9 mph N/A   Clear
12:53 PM 42.8 °F 36.6 °F -0.4 °F 16% 29.28 in 10.0 mi ENE 11.5 mph 27.6 mph N/A   Clear
12:58 PM 41.9 °F 37.5 °F 1.4 °F 19% 29.30 in 10.0 mi ENE 6.9 mph 27.6 mph N/A   Clear
1:59 PM 42.8 °F 37.5 °F 0.1 °F 17% 29.30 in 10.0 mi NNE 9.2 mph 32.2 mph N/A   Clear
2:44 PM 42.8 °F 35.1 °F 1.4 °F 18% 29.28 in 10.0 mi NE 16.1 mph 28.8 mph N/A   Clear
2:58 PM 43.2 °F 37.9 °F 0.3 °F 17% 29.28 in 10.0 mi East 9.2 mph 38.0 mph N/A   Clear
3:10 PM 42.8 °F 36.2 °F -0.4 °F 16% 29.28 in 10.0 mi NE 12.7 mph 27.6 mph N/A   Clear
3:36 PM 44.6 °F 38.4 °F 1.4 °F 17% 29.29 in 10.0 mi East 12.7 mph 31.1 mph N/A   Clear
3:58 PM 45.5 °F 40.3 °F 1.2 °F 16% 29.28 in 10.0 mi East 10.4 mph 20.7 mph N/A   Clear
4:36 PM 44.6 °F 37.8 °F -0.4 °F 15% 29.29 in 10.0 mi North 15.0 mph 26.5 mph N/A   Clear
4:58 PM 44.2 °F 40.3 °F -0.9 °F 15% 29.29 in 10.0 mi ENE 6.9 mph 19.6 mph N/A   Clear
5:58 PM 43.5 °F 40.9 °F 0.7 °F 17% 29.35 in 10.0 mi North 4.6 mph - N/A   Mostly Cloudy
6:58 PM 43.0 °F 39.5 °F -4.0 °F 14% 29.39 in 10.0 mi North 5.8 mph - N/A   Mostly Cloudy
7:58 PM 42.1 °F 39.2 °F -1.8 °F 16% 29.45 in 10.0 mi SSW 4.6 mph - N/A   Mostly Cloudy
8:58 PM 41.2 °F 35.5 °F -1.3 °F 17% 29.50 in 10.0 mi WNW 9.2 mph - N/A   Mostly Cloudy
9:58 PM 40.5 °F 35.8 °F -4.2 °F 15% 29.54 in 10.0 mi West 6.9 mph - N/A   Mostly Cloudy
10:58 PM 38.5 °F - -1.3 °F 19% 29.55 in 10.0 mi Calm Calm - N/A   Mostly Cloudy
11:58 PM 36.9 °F 33.1 °F -0.4 °F 21% 29.56 in 10.0 mi South 4.6 mph - N/A   Clear